GW0010 Weather Reports


Display with metric or nautical units.
time (UTC)temp
F
wind
direction
speed
MPH
gust
MPH
rain 1hr
in
rain 24hr
in
rain mn
in
humidity
%
barometer
mb
20260504002340 77 238 7.0 11.0 0.00 0.00 0.00 13 1024.2
20260504001340 78 241 7.0 11.0 0.00 0.00 0.00 12 1024.2
20260504000340 78 278 14.0 16.0 0.00 0.00 0.00 12 1023.9
20260503235335 78 261 7.0 9.0 0.00 0.00 0.00 11 1024.1
20260503234330 78 255 12.0 14.0 0.00 0.00 0.00 10 1023.9
20260503233329 78 246 9.0 14.0 0.00 0.00 0.00 11 1024.2
20260503232329 78 237 11.0 15.0 0.00 0.00 0.00 12 1024.3
20260503231329 79 235 8.0 9.0 0.00 0.00 0.00 10 1023.8
20260503230328 80 243 13.0 17.0 0.00 0.00 0.00 11 1023.8
20260503225327 78 255 7.0 13.0 0.00 0.00 0.00 11 1024.3
20260503224327 78 258 7.0 13.0 0.00 0.00 0.00 11 1024.1
20260503223322 79 268 12.0 15.0 0.00 0.00 0.00 12 1024.6
20260503222322 79 239 6.0 8.0 0.00 0.00 0.00 12 1024.7
20260503221319 78 259 12.0 17.0 0.00 0.00 0.00 11 1024.5
20260503220317 78 253 6.0 9.0 0.00 0.00 0.00 12 1024.5
20260503215317 78 269 10.0 18.0 0.00 0.00 0.00 12 1024.5
20260503214312 78 238 7.0 8.0 0.00 0.00 0.00 10 1024.6
20260503213307 77 216 6.0 14.0 0.00 0.00 0.00 14 1024.7
20260503212301 78 255 8.0 11.0 0.00 0.00 0.00 13 1025.3
20260503211301 77 308 7.0 14.0 0.00 0.00 0.00 14 1025.1
20260503210259 77 249 6.0 14.0 0.00 0.00 0.00 13 1025.6
20260503205256 77 257 9.0 17.0 0.00 0.00 0.00 13 1025.3
20260503204256 78 247 10.0 13.0 0.00 0.00 0.00 13 1025.5
20260503203251 78 230 2.0 6.0 0.00 0.00 0.00 13 1025.9
20260503202246 75 264 5.0 10.0 0.00 0.00 0.00 14 1026.1
20260503201246 77 259 9.0 14.0 0.00 0.00 0.00 14 1026.2
20260503200245 75 221 4.0 6.0 0.00 0.00 0.00 16 1026.4
20260503195245 75 266 7.0 11.0 0.00 0.00 0.00 16 1026.5
20260503194244 75 277 10.0 11.0 0.00 0.00 0.00 16 1026.5
20260503193243 75 226 6.0 15.0 0.00 0.00 0.00 16 1026.8
20260503192239 75 215 6.0 9.0 0.00 0.00 0.00 16 1026.9
20260503191234 75 246 9.0 13.0 0.00 0.00 0.00 15 1026.9
20260503190233 74 212 2.0 10.0 0.00 0.00 0.00 15 1027.0
20260503185232 74 243 6.0 9.0 0.00 0.00 0.00 15 1027.5
20260503184229 74 226 3.0 7.0 0.00 0.00 0.00 16 1027.5
20260503183229 73 249 2.0 9.0 0.00 0.00 0.00 17 1027.6
20260503182225 73 278 5.0 10.0 0.00 0.00 0.00 17 1027.6
20260503181224 72 250 6.0 9.0 0.00 0.00 0.00 19 1028.0
20260503180219 73 272 8.0 11.0 0.00 0.00 0.00 17 1027.8
20260503175219 71 221 1.0 2.0 0.00 0.00 0.00 18 1028.0
20260503174218 72 281 7.0 8.0 0.00 0.00 0.00 18 1028.3
20260503173215 70 238 5.0 7.0 0.00 0.00 0.00 21 1028.3
20260503172215 70 283 8.0 10.0 0.00 0.00 0.00 20 1028.3
20260503171214 69 218 3.0 8.0 0.00 0.00 0.00 22 1028.3
20260503170214 71 240 5.0 9.0 0.00 0.00 0.00 19 1028.7
20260503160159 68 239 6.0 9.0 0.00 0.00 0.00 24 1028.5
20260503150142 64 214 2.0 5.0 0.00 0.00 0.00 35 1027.8
20260503140135 61 99 3.0 3.0 0.00 0.00 0.00 65 1027.5
20260503131128 54 95 4.0 6.0 0.00 0.00 0.00 84 1026.6
20260503130123 53 88 3.0 5.0 0.00 0.00 0.00 86 1026.6
20260503120111 51 103 5.0 7.0 0.00 0.00 0.00 89 1025.6
20260503081024 57 173 2.0 3.0 0.00 0.00 0.00 67 1026.1
20260503072014 62 220 0.0 1.0 0.00 0.00 0.00 39 1026.4
20260503071014 62 217 1.0 5.0 0.00 0.00 0.00 39 1026.4
20260503054956 65 255 7.0 9.0 0.00 0.00 0.00 34 1026.5
20260503053956 64 230 4.0 6.0 0.00 0.00 0.00 34 1026.5
20260503052956 65 255 5.0 8.0 0.00 0.00 0.00 33 1026.2
20260503051955 65 251 8.0 10.0 0.00 0.00 0.00 33 1026.6
20260503050955 65 233 5.0 8.0 0.00 0.00 0.00 33 1026.4
20260503045954 65 245 5.0 8.0 0.00 0.00 0.00 33 1026.4
20260503044954 66 231 3.0 6.0 0.00 0.00 0.00 33 1026.4
20260503043954 66 234 7.0 9.0 0.00 0.00 0.00 32 1026.2
20260503042952 65 222 4.0 6.0 0.00 0.00 0.00 32 1026.1
20260503041952 66 229 5.0 7.0 0.00 0.00 0.00 32 1026.4
20260503040952 66 241 5.0 10.0 0.00 0.00 0.00 31 1026.2
20260503035952 67 249 5.0 6.0 0.00 0.00 0.00 31 1026.2
20260503034947 68 249 8.0 10.0 0.00 0.00 0.00 30 1026.0
20260503033947 68 265 7.0 11.0 0.00 0.00 0.00 30 1025.7
20260503032942 68 260 7.0 9.0 0.00 0.00 0.00 29 1025.9
20260503031937 68 235 4.0 8.0 0.00 0.00 0.00 29 1025.6
20260503030937 69 233 6.0 10.0 0.00 0.00 0.00 28 1025.1
20260503025937 69 292 8.0 13.0 0.00 0.00 0.00 28 1025.2
20260503024937 69 252 9.0 14.0 0.00 0.00 0.00 28 1025.1
20260503023937 69 271 7.0 11.0 0.00 0.00 0.00 28 1025.1
20260503022936 70 244 5.0 8.0 0.00 0.00 0.00 28 1024.8
20260503021933 70 263 7.0 10.0 0.00 0.00 0.00 28 1024.5
20260503020933 71 289 5.0 14.0 0.00 0.00 0.00 28 1024.2
20260503015933 71 221 6.0 14.0 0.00 0.00 0.00 29 1024.1
20260503014931 71 255 11.0 16.0 0.00 0.00 0.00 29 1024.2
20260503013927 72 258 6.0 17.0 0.00 0.00 0.00 28 1023.8
20260503012927 72 268 9.0 14.0 0.00 0.00 0.00 28 1023.4
20260503011926 73 249 11.0 15.0 0.00 0.00 0.00 27 1023.4
20260503010927 74 268 11.0 14.0 0.00 0.00 0.00 27 1023.3
20260503005926 74 274 12.0 18.0 0.00 0.00 0.00 26 1023.2
20260503004926 75 237 11.0 15.0 0.00 0.00 0.00 26 1023.1
20260503003921 75 265 11.0 14.0 0.00 0.00 0.00 25 1022.8